Location: Austin
(30.3000°N, 97.7500°W)
Time: 07:31:04
(UTC-06:00)

SJ 16-02 - Pass Details

Date: 10 January 2026
Orbit: 584 x 593 km, 75.0° (Epoch: 22 January)

Event Time Altitude Azimuth Distance (km) Brightness Sun altitude
Rises 19:28:28 0° 332° (NNW) 2,817 4.9 -21.1°
Reaches altitude 10° 19:30:53 10° 321° (NW) 1,914 4.2 -21.6°
Maximum altitude 19:34:36 30° 261° (W) 1,070 3.2 -22.4°
Drops below altitude 10° 19:38:19 10° 199° (SSW) 1,909 4.2 -23.2°
Sets 19:40:43 0° 189° (S) 2,808 5.0 -23.7°
